Regional Weather Roundup
Issued by NWS

Home | Current Version | Previous Version | Text Only | Print | Product List | Glossary Off
Versions: 1 2 3 4 5 6 7 8 9 10 11 12 13 14 15 16 17 18 19 20 21 22 23 24 25 26 27

000
ASUS45 KBOU 181807
RWRCO

WEATHER ROUNDUP FOR COLORADO
NATIONAL WEATHER SERVICE DENVER/BOULDER CO
1200 PM MDT FRI AUG 18 2017

NOTE: "FAIR" INDICATES FEW OR NO CLOUDS BELOW 12000 FEET WITH NO
SIGNIFICANT WEATHER AND/OR OBSTRUCTIONS TO VISIBILITY.

COZ001>005-013-030-031-181900-
...NORTHWEST COLORADO...

CITY           SKY/WX    TMP DP  RH WIND       PRES   REMARKS
CRAIG          FAIR      80  28  15 N5        30.30F
HAYDEN         FAIR      75  30  19 CALM      30.33F
MEEKER         FAIR      79  33  19 CALM      30.30F
RABBIT EARS PA FAIR      59  32  36 NW7       30.60S
STEAMBOAT SPGS FAIR      73  33  22 NW5       30.34S
WALDEN         FAIR      72  28  20 W9G18     30.42S
$$

COZ006>008-011-181900-
...WEST CENTRAL VALLEYS...

CITY           SKY/WX    TMP DP  RH WIND       PRES   REMARKS
GRAND JUNCTION FAIR      82  37  20 CALM      30.20F
MONTROSE       FAIR      80  46  30 N7        30.27F
EAGLE          FAIR      78  37  22 CALM      30.33F
RIFLE          FAIR      81  36  19 VRB3      30.24F
DELTA          FAIR      84  36  18 CALM      30.23F
NUCLA          FAIR      81  32  17 N6        30.31F
$$

COZ017>023-064>068-181900-
...SOUTHWEST COLORADO...

CITY           SKY/WX    TMP DP  RH WIND       PRES   REMARKS
DURANGO        FAIR      81  29  15 E6        30.34S
CORTEZ         FAIR      83  30  14 SW5       30.28F
PAGOSA SPRINGS FAIR      77  20  12 W9        30.41F
TELLURIDE      CLOUDY    73  28  18 W7        30.53S
WOLF CREEK PAS NOT AVBL
$$

COZ009-010-012-014-032>034-037-058>063-181900-
...CENTRAL COLORADO...

CITY           SKY/WX    TMP DP  RH WIND       PRES   REMARKS
ASPEN          FAIR      77  34  21 N10G17    30.39F
BUENA VISTA    FAIR      73  33  22 SE3       30.40F
COPPER MTN     PTSUNNY   55  32  41 W9G17     30.72R
BERTHOUD PASS  FAIR      46  41  81 NW24G36   30.72R
COTTONWOOD PAS PTSUNNY   72  28  20 SW3G16    30.56S
GUNNISON       FAIR      68  35  29 CALM      30.43F
KREMMLING      FAIR      79  32  18 CALM      30.39F
LEADVILLE      PTSUNNY   61  28  28 W12       30.52S
MONARCH PASS   FAIR      55  30  38 SW15G22   30.82S
SALIDA         FAIR      76  40  27 E3        30.44F
SUNLIGHT       PTSUNNY   59  32  36 W6        30.65S
WILKERSON PASS FAIR      59  30  33 SW10G16   30.68F
$$

COZ069>075-181900-
...SAN LUIS VALLEY/SANGRE DE CRISTO MOUNTAINS...

CITY           SKY/WX    TMP DP  RH WIND       PRES   REMARKS
ALAMOSA        FAIR      73  37  27 CALM      30.40F
DEL NORTE      FAIR      72  36  27 SE5       30.44F
LA VETA PASS   NOT AVBL
SAGUACHE       FAIR      72  41  33 S8        30.43F
$$

COZ035-036-038>040-181900-
...NORTHERN COLORADO FRONT RANGE...

CITY           SKY/WX    TMP DP  RH WIND       PRES   REMARKS
DENVER INTL AP FAIR      80  43  26 NE5       30.21F
DMNS CITY PARK   N/A     80  45  28 W5G12     30.20F
AURORA         MOSUNNY   80  45  29 NE5       30.23F
FRONT RANGE AP FAIR      79  43  27 N5        30.23F
ERIE MUNI ARPT FAIR      80  40  24 SE3       30.25F
BOULDER MUN AP FAIR      77  45  31 SE3       30.20F
CENTENNIAL     FAIR      80  42  25 VRB3      30.24F
BROOMFIELD     MOSUNNY   77  45  31 VRB3      30.24F
FORT COLLINS   FAIR      78  48  34 S7        30.20F HAZE
LONGMONT       FAIR      81  47  30 CALM      30.21F
$$

COZ041-046-047-076>085-087-088-181900-
...PIKES PEAK/PALMER DIVIDE AND SOUTHERN FOOTHILLS...

CITY           SKY/WX    TMP DP  RH WIND       PRES   REMARKS
COLO. SPRINGS  FAIR      83  45  26 S6        30.28F
A. F. ACADEMY  FAIR      81  39  22 S9        30.28F
SCHRIEVER AFB  FAIR      78  48  35 S14       30.28S
CHEYENNE MTN   PTSUNNY   77  41  27 SE13      30.28F
ELLICOTT       FAIR     N/A N/A N/A S10       30.26F
FALCON         FAIR      79  33  19 CALM      30.33S
FORT CARSON    FAIR      81  47  29 S8        30.25S
LIMON          FAIR      79  48  33 NE3       30.22F
MONUMENT HILL  FAIR      73  41  31 N3        30.35S
CANON CITY     SUNNY     88  45  22 SW8       30.21F
WALSENBURG     FAIR      86  36  16 E6        30.27S
TRINIDAD       FAIR      83  38  20 VRB3      30.26F
$$

COZ042>045-048>051-090-091-181900-
...NORTHEAST COLORADO...

CITY           SKY/WX    TMP DP  RH WIND       PRES   REMARKS
GREELEY ARPT   FAIR      80  52  37 VRB6      30.19F
AKRON          FAIR      78  46  32 VRB3      30.18F
BURLINGTON     FAIR      82  55  39 N14       30.14S
WRAY           NOT AVBL
YUMA           FAIR      79  36  21 NE7       30.15S
STERLING       FAIR      81  50  34 E6        30.14S
HOLYOKE        FAIR      84  48  28 NW3       30.12S
FORT MORGAN    FAIR      82  44  26 SW5       30.18F
$$

COZ086-089-092>099-181900-
...SOUTHEAST COLORADO...

CITY           SKY/WX    TMP DP  RH WIND       PRES   REMARKS
PUEBLO         FAIR      86  43  22 VRB5      30.17F
LA JUNTA       FAIR      85  51  31 VRB5      30.15F
LAMAR          FAIR      84  52  33 W7        30.09F
SPRINGFIELD      N/A     84  58  40 SW5       30.13F
$$




USA.gov is the U.S. government's official web portal to all federal, state and local government web resources and services.